HS6TUX-4 Weather Reports


time (UTC)temp
C
wind
direction
speed
KPH
gust
KPH
rain 1hr
cm
rain 24hr
cm
rain mn
cm
humidity
%
barometer
mb
20260504235621 26 0 0.0 0.0 0.00 0.00 0.00 99 723.0
20260504234052 25 0 0.0 0.0 0.00 0.00 0.00 99 723.0
20260504232524 25 0 0.0 0.0 0.00 0.00 0.00 99 722.0
20260504230956 24 0 0.0 0.0 0.00 0.00 0.00 99 721.0
20260504225427 24 0 0.0 0.0 0.00 0.00 0.00 99 721.0
20260504223859 24 0 0.0 0.0 0.00 0.00 0.00 99 721.0
20260504222331 23 0 0.0 0.0 0.00 0.00 0.00 99 721.0
20260504220803 23 0 0.0 0.0 0.00 0.00 0.00 99 721.0
20260504215234 23 0 0.0 0.0 0.00 0.00 0.00 99 721.0
20260504213706 23 0 0.0 0.0 0.00 0.00 0.00 99 721.0
20260504212138 24 0 0.0 0.0 0.00 0.00 0.00 99 721.0
20260504210610 25 0 0.0 0.0 0.00 0.00 0.00 99 721.0
20260504205042 25 0 0.0 0.0 0.00 0.00 0.00 99 722.0
20260504203513 25 0 0.0 0.0 0.00 0.00 0.00 99 722.0
20260504201944 25 0 0.0 0.0 0.00 0.00 0.00 99 721.0
20260504200416 24 0 0.0 0.0 0.00 0.00 0.00 99 721.0
20260504194848 24 0 0.0 0.0 0.00 0.00 0.00 99 721.0
20260504193320 24 0 0.0 0.0 0.00 0.00 0.00 99 721.0
20260504191752 24 0 0.0 0.0 0.00 0.00 0.00 99 721.0
20260504190224 24 0 0.0 0.0 0.00 0.00 0.00 99 721.0
20260504184656 23 0 0.0 0.0 0.00 0.00 0.00 99 720.0
20260504183128 24 0 0.0 0.0 0.00 0.00 0.00 99 721.0
20260504181600 25 0 0.0 0.0 0.00 0.00 0.00 99 722.0
20260504180031 26 0 0.0 0.0 0.00 0.00 0.00 99 723.0
20260504174503 26 0 0.0 0.0 0.00 0.00 0.00 99 723.0
20260504172935 26 0 0.0 0.0 0.00 0.00 0.00 99 723.0
20260504171407 26 0 0.0 0.0 0.00 0.00 0.00 99 723.0
20260504151022 28 0 0.0 0.0 0.00 0.00 0.00 99 726.0
20260504140830 31 0 0.0 0.0 0.00 0.00 0.00 99 728.0
20260504130637 31 0 0.0 0.0 0.00 0.00 0.00 99 728.0
20260504080711 42 0 0.0 0.0 0.00 0.00 0.00 69 742.0
20260504050133 43 0 0.0 0.0 0.00 0.00 0.00 80 742.0
20260504044604 43 0 0.0 0.0 0.00 0.00 0.00 79 743.0
20260504043036 44 0 0.0 0.0 0.00 0.00 0.00 82 744.0
20260504041508 43 0 0.0 0.0 0.00 0.00 0.00 84 742.0
20260504035940 43 0 0.0 0.0 0.00 0.00 0.00 83 743.0
20260504034412 41 0 0.0 0.0 0.00 0.00 0.00 89 740.0
20260504032844 41 0 0.0 0.0 0.00 0.00 0.00 89 741.0
20260504031316 42 0 0.0 0.0 0.00 0.00 0.00 87 741.0
20260504025747 42 0 0.0 0.0 0.00 0.00 0.00 89 741.0
20260504024219 41 0 0.0 0.0 0.00 0.00 0.00 90 740.0
20260504022651 43 0 0.0 0.0 0.00 0.00 0.00 87 743.0
20260504021123 40 0 0.0 0.0 0.00 0.00 0.00 97 739.0
20260504013621 43 0 0.0 0.0 0.00 0.00 0.00 96 742.0
20260504012053 37 0 0.0 0.0 0.00 0.00 0.00 99 736.0
20260504010525 36 0 0.0 0.0 0.00 0.00 0.00 99 735.0
20260504004956 37 0 0.0 0.0 0.00 0.00 0.00 99 736.0
20260504003428 33 0 0.0 0.0 0.00 0.00 0.00 99 732.0
20260504001900 32 0 0.0 0.0 0.00 0.00 0.00 99 731.0